GFSSE_700_spd_093.txt.gz
Wind_Speed
16 15 10 14 20 26 22 17 12 15 12 12 9 9 9 8 7 4 1 4 8 11 12 14 13 13 12 12 11 11 9 9 9 10 9 8 11 12 12 12 9 7 8
16 18 12 16 19 27 25 19 16 18 16 14 12 12 11 9 8 5 1 3 7 10 13 11 11 11 12 12 11 10 10 9 10 10 9 9 10 11 9 8 6 5 5
16 19 15 16 21 30 28 23 21 23 20 18 16 14 13 13 8 7 3 2 6 9 10 10 10 10 10 11 12 11 12 12 11 11 11 10 10 9 8 7 6 5 4
16 16 18 19 23 30 35 29 21 25 23 21 19 17 15 14 10 6 3 5 5 8 9 9 9 10 11 11 12 12 11 10 9 8 7 8 8 8 7 6 6 6 6
14 18 18 18 23 31 36 32 24 32 30 27 22 19 18 15 8 4 1 5 7 10 9 10 11 12 13 12 12 11 11 10 9 7 7 6 6 7 6 7 7 7 8
17 18 18 18 20 26 37 42 39 36 36 31 26 21 21 15 12 8 3 5 7 8 11 11 12 12 12 11 11 11 10 9 7 8 7 8 7 7 8 9 9 8 7
19 20 20 20 24 28 34 42 29 38 38 34 28 25 24 19 15 9 5 5 8 13 12 13 13 14 15 14 12 10 9 7 7 7 7 7 8 9 9 9 8 8 7
23 25 24 22 23 25 29 42 43 45 54 34 30 28 24 21 15 13 6 6 12 13 14 13 15 15 14 13 12 10 9 9 7 7 6 7 7 8 8 8 8 8 7
27 28 26 23 20 21 25 35 49 50 57 39 32 33 26 23 15 12 7 9 13 13 14 14 14 12 11 11 10 9 8 6 7 5 5 6 6 7 8 8 9 8 7
30 31 28 25 21 23 25 38 43 43 45 48 39 35 29 22 22 15 10 15 14 14 15 16 14 12 10 9 9 9 8 6 4 4 5 7 7 7 8 8 8 7 7
25 29 26 23 23 25 23 29 27 37 39 37 41 37 31 25 21 23 15 17 16 15 17 16 14 13 13 10 9 8 9 9 5 4 6 7 7 8 8 8 8 7 6
24 21 18 19 23 23 23 23 13 31 48 48 52 39 35 28 22 16 18 19 19 20 19 17 16 14 12 9 8 7 8 10 6 4 6 7 8 9 9 9 8 6 5
26 21 21 22 24 22 15 7 10 27 36 49 44 41 38 30 30 20 23 24 23 23 21 19 16 15 12 10 8 6 6 6 3 5 7 7 9 10 10 9 8 7 5
22 23 24 26 22 21 15 6 7 28 39 42 52 44 37 35 32 23 26 26 26 26 23 19 17 15 13 11 9 7 7 6 6 7 8 9 10 10 10 8 8 8 7
20 20 29 17 17 17 16 13 8 18 25 34 50 45 38 36 32 27 28 27 28 26 23 21 17 14 11 9 7 7 6 5 5 6 7 8 9 10 9 9 8 7 8
20 22 24 11 5 13 16 16 19 8 24 36 43 40 40 35 32 33 32 30 29 28 25 22 18 14 12 9 7 6 5 5 6 7 7 8 9 9 9 9 8 9 10
23 23 17 15 12 13 16 12 22 17 14 35 40 44 38 39 37 36 35 34 32 31 27 24 19 16 12 8 7 6 4 5 6 6 6 7 9 9 9 9 10 11 11
28 19 11 14 12 13 13 18 22 25 25 33 44 45 39 40 38 35 38 37 35 33 28 23 21 17 13 9 5 6 5 7 7 7 8 8 8 9 11 12 12 13 14
27 11 12 13 10 12 13 16 18 24 31 34 47 39 44 47 47 38 37 37 35 32 29 26 22 16 12 8 7 6 6 8 8 9 9 9 10 11 12 13 15 16 17
17 9 8 9 10 10 8 11 9 11 29 34 41 38 43 49 43 38 34 29 32 31 29 26 23 17 10 6 10 8 8 8 9 10 11 12 12 14 16 17 17 21 22
10 10 12 6 9 5 5 5 10 7 23 35 38 44 54 47 38 38 33 36 34 32 29 26 23 21 7 13 13 11 11 12 12 12 13 14 15 16 18 20 25 25 23
9 3 11 10 9 8 4 5 6 10 25 21 44 50 47 41 46 40 38 38 36 37 36 35 28 24 20 16 12 15 16 16 15 15 18 17 18 21 23 24 25 27 32
7 4 7 9 8 8 7 10 13 13 20 25 39 46 42 39 47 49 50 46 44 39 40 36 23 32 21 16 17 19 17 16 15 18 16 20 23 23 25 28 27 31 35
4 4 8 10 12 10 10 11 13 11 9 14 25 27 30 33 50 56 58 44 40 40 36 39 33 27 21 26 22 21 20 20 20 19 25 26 26 28 29 31 32 32 34
1 3 4 6 14 15 14 10 14 13 16 15 15 17 18 22 28 38 46 51 38 43 38 38 31 27 24 26 24 24 23 24 25 27 28 27 34 37 35 33 34 35 37
1 0 2 3 6 18 20 17 18 13 17 19 18 22 24 21 17 21 34 45 40 33 35 38 36 35 31 31 28 31 29 30 30 29 31 31 33 33 41 44 40 35 39

GFSSE_700_spd_096.txt.gz
Wind_Speed
18 13 15 12 8 15 18 19 15 13 13 12 10 9 10 9 9 7 4 5 10 12 12 12 12 11 10 10 11 10 10 10 12 13 12 9 10 12 13 12 10 9 8
21 17 18 15 11 15 22 21 17 16 17 15 13 12 11 10 9 8 8 3 7 11 11 11 11 10 10 10 11 11 11 12 13 13 10 10 12 12 10 9 6 5 5
22 22 19 14 14 17 23 25 21 20 19 17 15 14 13 11 8 6 8 6 4 10 12 10 10 11 12 12 11 12 13 14 12 9 8 9 10 9 7 5 5 5 5
23 19 16 11 16 18 24 28 27 21 21 18 16 16 17 13 9 5 4 5 5 7 9 10 11 12 14 14 13 12 11 10 9 8 7 9 9 9 7 7 6 7 7
17 17 16 13 14 20 24 28 31 27 23 22 22 21 21 17 13 7 4 3 6 7 7 10 11 12 13 14 13 12 10 10 7 7 8 8 8 8 9 8 9 9 9
18 20 15 15 15 15 22 27 32 29 35 24 25 26 24 21 18 13 7 4 8 10 8 10 12 12 13 14 13 12 9 7 7 7 6 7 7 8 9 9 10 10 9
20 23 21 19 19 19 22 27 36 37 34 25 34 36 24 24 20 14 9 5 6 10 9 11 13 13 14 14 13 12 10 9 10 10 8 8 8 8 10 10 10 9 8
24 24 25 23 23 21 25 27 31 38 40 45 42 38 29 28 23 18 13 6 7 7 7 11 12 13 13 13 13 11 9 8 8 9 9 9 9 10 10 9 8 8 8
27 27 27 24 25 24 23 24 27 34 38 47 52 39 35 31 19 19 11 10 13 11 12 13 14 15 15 13 12 11 10 7 6 9 8 8 9 9 8 8 9 9 8
26 26 25 25 25 25 21 23 26 33 41 57 50 35 39 27 23 16 17 16 16 15 15 17 17 16 15 15 15 13 11 8 7 7 8 8 8 10 10 10 9 9 8
19 20 21 19 16 18 24 26 33 34 41 37 44 38 42 29 25 21 18 18 18 17 17 17 17 16 16 17 16 15 12 8 6 8 8 9 9 10 11 11 10 9 7
27 21 21 20 18 16 24 26 32 37 30 31 54 43 47 34 28 24 18 19 20 21 21 20 18 16 16 15 14 12 11 10 8 6 8 9 9 11 11 11 10 8 7
29 27 21 19 22 23 25 24 29 25 20 35 42 24 43 38 33 29 26 24 24 24 24 22 19 17 15 14 12 11 9 6 8 6 8 9 9 10 9 8 8 8 8
27 28 21 21 25 19 20 19 21 17 22 46 49 36 50 39 34 28 25 25 26 26 23 21 19 17 16 15 11 9 8 3 7 6 7 8 9 9 9 9 9 10 9
23 28 25 24 23 13 18 16 10 8 20 34 43 34 41 41 34 30 26 26 27 27 25 23 20 17 16 14 11 9 8 3 6 6 7 8 10 9 9 10 10 10 9
23 24 26 26 16 11 16 16 9 9 24 15 33 50 44 39 36 30 27 30 29 28 27 24 20 18 17 13 11 9 7 3 4 5 7 7 8 9 9 10 10 9 8
23 25 28 23 13 8 16 17 15 8 11 28 35 47 46 39 36 30 30 32 30 30 28 25 21 19 17 14 12 9 6 4 3 4 6 7 8 7 8 8 10 9 9
26 29 23 10 12 12 12 15 14 18 11 31 41 47 44 39 36 32 34 33 32 31 29 26 22 21 18 15 11 8 6 5 5 4 6 7 7 7 9 10 10 10 11
26 25 4 6 9 9 11 12 17 19 22 22 45 44 35 38 39 36 35 35 36 33 31 26 24 21 18 15 12 9 6 5 5 6 6 7 8 8 9 10 11 12 13
23 16 4 6 8 7 9 13 22 28 29 30 36 39 41 38 41 42 36 35 35 35 33 29 25 23 19 16 14 8 6 6 5 6 8 9 8 10 10 11 13 14 16
18 11 4 3 3 5 8 9 15 26 28 36 38 41 43 43 44 45 43 38 28 27 30 28 28 27 25 21 12 4 7 8 8 10 9 11 12 13 15 16 16 18 20
13 9 2 11 7 7 7 6 9 15 17 26 34 37 46 48 45 44 41 34 30 29 31 31 31 29 27 20 21 13 11 11 16 13 14 15 15 16 16 19 22 23 25
11 9 4 7 11 6 6 5 12 12 17 24 18 38 40 46 41 44 47 39 32 34 35 34 34 33 29 24 23 17 16 19 15 15 15 18 15 17 19 21 22 24 29
8 7 5 6 9 7 5 5 7 7 13 21 16 29 36 43 47 52 36 41 45 44 40 39 38 31 28 30 28 22 19 19 18 21 20 20 21 23 24 24 26 28 28
5 6 7 6 5 9 9 9 11 12 15 18 19 23 38 40 38 35 32 37 47 42 39 37 35 41 40 28 25 26 23 23 22 24 25 25 29 30 29 29 30 31 31
5 3 6 6 4 9 12 9 8 12 12 13 16 20 22 22 21 19 22 33 45 40 38 43 37 34 30 34 19 23 27 27 26 26 29 31 31 31 35 40 40 37 36

GFSSE_700_spd_099.txt.gz
Wind_Speed
8 12 14 14 13 10 12 15 18 18 16 14 14 13 13 13 13 13 13 13 14 14 12 12 12 13 13 12 12 12 11 11 11 10 11 11 12 11 12 11 11 10 10
16 20 22 22 17 12 12 16 22 15 18 17 15 15 15 14 11 10 10 11 12 12 12 13 14 13 13 12 11 11 12 12 14 15 11 10 15 15 14 10 9 8 8
26 28 29 27 20 16 15 18 21 18 19 18 17 17 17 15 12 9 9 11 13 13 13 14 13 12 13 13 13 13 14 13 13 11 11 12 12 12 9 7 6 6 6
29 29 28 17 15 16 19 23 24 25 22 21 20 18 16 16 15 10 7 10 13 14 14 13 12 13 14 15 15 15 13 12 10 10 11 11 10 9 8 7 6 7 6
28 24 18 14 14 14 18 23 25 26 27 24 24 23 24 20 16 12 9 9 14 13 12 12 13 15 14 15 15 14 13 12 10 10 9 9 9 7 7 8 8 8 9
26 22 19 17 14 14 13 21 27 29 29 29 25 28 28 31 23 15 13 8 14 15 13 14 14 15 16 15 15 14 12 13 15 12 12 12 10 10 10 10 9 10 10
26 27 25 22 19 19 16 18 24 30 34 37 35 36 34 25 25 20 15 11 14 16 14 14 16 16 16 16 14 13 13 13 12 14 11 10 11 10 10 11 12 11 10
30 29 27 26 24 23 21 21 25 28 33 40 47 39 43 26 22 21 17 13 15 19 18 16 14 14 15 14 14 14 14 12 12 12 12 11 11 11 12 12 12 11 10
28 28 25 25 25 26 25 26 24 26 30 34 34 34 25 23 27 26 19 16 17 19 20 19 16 15 15 16 15 14 13 12 10 10 10 10 11 12 13 12 12 11 9
24 20 20 18 19 22 24 24 25 24 27 29 32 30 38 35 27 26 21 18 18 18 19 19 15 16 18 17 15 13 11 12 11 11 11 11 11 12 12 12 11 11 9
24 21 18 18 20 19 18 23 26 27 29 34 34 29 31 41 35 25 20 20 20 20 20 18 22 21 19 17 16 12 10 12 12 11 10 10 11 11 12 12 11 9 8
28 23 18 17 18 16 19 22 26 29 30 34 39 42 41 49 35 27 25 25 24 23 24 25 23 21 19 18 15 13 11 11 10 10 10 10 11 11 12 11 11 10 10
29 27 20 16 19 19 22 26 28 30 31 36 44 44 30 39 41 33 31 30 27 27 28 27 24 22 20 18 17 12 10 10 10 11 11 10 11 12 11 10 10 9 9
30 28 23 20 20 22 25 21 25 27 32 33 31 35 41 48 45 39 33 30 30 31 29 27 25 22 21 19 15 12 9 9 9 10 9 10 10 10 10 10 10 9 9
29 29 27 23 25 22 21 17 16 21 35 28 21 43 51 47 42 40 31 27 29 30 29 27 25 24 21 19 16 10 10 9 9 8 8 8 9 9 9 9 10 10 8
27 27 28 26 26 23 16 16 11 8 6 17 39 39 53 47 42 38 33 31 30 30 30 27 26 23 21 20 16 11 11 10 7 7 7 8 8 8 9 10 9 8 7
25 27 32 29 22 14 11 13 13 9 11 25 46 36 46 45 43 37 35 34 33 32 31 29 27 24 21 20 17 13 12 10 6 6 6 7 8 8 9 9 8 6 5
24 27 29 18 7 11 7 11 16 9 9 15 49 41 38 50 39 37 32 33 32 33 31 28 25 23 22 21 17 13 12 11 9 7 6 6 7 7 7 7 6 6 5
23 25 18 4 6 5 8 8 14 14 7 15 32 49 43 43 37 34 30 32 32 33 31 28 26 23 24 22 19 16 12 11 10 8 7 6 6 6 6 7 7 6 7
20 22 10 1 3 5 7 9 13 18 15 16 35 43 45 42 37 36 32 34 33 34 32 31 28 27 25 23 21 18 13 10 8 8 9 7 7 6 7 7 7 8 9
18 18 11 2 2 6 8 11 13 19 24 27 35 40 43 41 40 39 34 35 36 37 33 31 31 30 30 27 23 20 15 9 5 6 8 8 9 9 9 10 10 11 13
16 15 11 4 7 5 10 13 12 13 23 35 39 34 44 38 39 40 38 38 40 39 38 34 33 32 30 28 26 23 12 24 12 9 11 12 12 13 12 12 12 15 16
15 14 11 5 6 7 9 10 12 14 19 31 37 36 43 43 43 36 43 40 39 39 31 34 31 29 30 30 26 18 17 21 19 17 16 14 13 15 14 17 18 20 19
13 11 10 8 5 7 9 10 12 12 17 27 34 32 33 39 43 40 38 46 36 35 30 34 32 32 32 30 25 22 23 27 20 18 15 15 15 16 18 20 22 22 23
12 10 8 6 6 3 9 7 10 18 17 19 24 24 35 40 40 38 41 36 42 39 38 40 39 36 34 34 32 30 30 30 26 22 21 19 22 21 22 24 25 30 34
12 9 6 6 4 2 10 8 5 7 17 19 18 18 28 31 29 40 41 34 44 28 42 42 37 40 37 38 34 32 29 24 27 24 23 23 24 25 26 29 33 37 39

GFSSE_700_spd_105.txt.gz
Wind_Speed
3 2 7 14 18 18 15 12 12 15 16 19 20 20 23 21 16 15 15 14 14 13 12 9 9 11 12 11 13 11 12 13 7 9 11 12 12 9 8 8 8 8 8
9 10 15 19 18 16 12 13 12 14 16 21 22 20 19 17 16 16 15 14 15 15 13 12 12 14 15 14 15 14 12 12 9 10 10 12 12 11 11 10 10 9 9
13 16 20 20 20 18 13 15 15 16 18 22 24 21 21 20 20 17 15 14 16 16 16 14 14 15 17 15 15 15 13 12 10 10 12 12 12 13 12 12 11 10 7
15 20 21 21 22 18 16 13 17 17 20 22 25 26 22 21 17 16 16 17 17 17 18 16 17 18 18 17 16 15 13 13 15 13 10 12 14 14 10 8 7 6 6
18 16 20 22 22 17 17 15 16 19 26 26 26 27 27 23 20 18 17 17 17 17 19 18 19 19 18 17 16 14 12 12 11 10 10 12 13 9 7 8 8 6 6
16 19 20 25 20 17 18 18 17 18 23 27 28 34 30 26 27 21 16 14 15 18 19 20 20 20 18 16 14 12 14 13 13 10 12 11 12 9 9 7 6 7 6
14 19 23 26 20 17 17 20 20 19 20 30 31 39 30 33 26 26 18 15 15 17 19 20 20 19 17 15 14 13 14 13 12 13 11 13 11 10 8 7 8 7 8
19 23 23 23 21 19 18 18 21 22 22 28 37 39 33 28 34 25 22 19 18 19 20 21 20 18 17 16 15 14 12 12 11 11 11 11 11 10 9 10 9 9 8
20 21 22 24 23 22 19 18 22 25 25 30 34 38 43 38 37 32 22 25 20 21 22 22 19 17 18 16 14 14 13 12 11 12 11 11 11 11 10 10 9 9 8
21 21 25 25 25 22 21 20 22 24 25 30 31 34 33 30 28 31 33 30 24 22 22 22 20 19 18 15 14 14 14 13 12 12 12 13 11 10 11 10 9 9 8
21 23 26 30 26 22 21 20 23 24 27 30 30 30 28 30 27 30 32 27 25 22 22 23 22 21 19 17 17 16 14 12 13 14 13 12 11 11 11 10 10 9 8
23 26 30 30 24 21 20 21 22 24 26 29 30 30 32 30 29 29 22 29 27 25 24 24 24 24 20 20 20 18 14 14 14 14 14 12 12 11 10 10 10 8 8
28 29 27 27 22 22 21 22 23 25 26 26 27 28 29 29 31 27 22 21 31 29 28 27 28 26 23 21 16 17 14 17 17 16 13 11 10 10 10 10 9 7 7
28 32 28 25 26 26 26 25 26 27 29 27 28 32 32 32 30 27 19 19 32 33 31 29 29 27 25 21 19 16 20 18 15 13 12 11 10 10 11 10 9 8 8
28 33 27 26 28 31 33 31 29 28 28 30 30 33 34 35 34 33 28 19 36 36 32 31 31 29 26 22 19 21 18 16 14 13 12 12 12 11 10 9 8 8 8
26 21 25 27 32 35 37 33 27 26 26 26 28 32 35 37 37 36 33 29 44 37 34 32 32 28 26 22 22 21 19 16 14 13 11 11 10 10 10 10 9 9 8
19 19 24 27 32 36 34 26 19 21 21 23 25 32 39 41 45 45 38 34 39 39 38 36 33 29 27 25 25 21 18 15 14 13 14 13 13 13 12 11 10 8 7
20 21 24 27 32 33 27 14 13 16 18 18 22 31 35 51 51 43 41 40 46 44 40 39 36 28 27 26 25 21 18 16 16 15 14 14 14 14 12 10 9 9 9
22 23 23 26 30 29 20 11 10 14 16 14 19 19 29 38 46 42 40 50 50 46 41 40 35 30 27 29 25 20 20 18 16 16 15 14 14 13 12 10 10 9 9
22 24 24 23 28 26 18 11 11 13 17 15 15 14 23 33 32 42 50 49 49 44 42 41 37 32 30 30 26 24 23 20 18 17 15 14 12 10 10 11 11 10 9
24 25 24 23 26 24 18 14 16 13 15 16 15 20 11 28 44 47 48 48 45 43 42 39 38 36 37 33 30 28 25 22 21 17 14 10 7 9 12 12 12 12 10
27 26 24 23 25 23 20 18 17 16 16 18 20 23 25 29 49 50 46 45 42 42 41 39 38 40 37 33 30 28 28 27 24 18 13 11 15 18 14 13 13 12 11
32 25 24 22 24 24 23 20 17 17 17 19 24 23 23 29 51 48 45 41 40 40 40 41 41 40 36 34 32 30 30 27 23 15 13 15 13 15 15 16 14 13 12
23 27 24 21 24 24 23 19 18 15 16 20 21 19 27 48 51 49 44 40 38 39 39 41 41 38 35 33 32 31 27 24 20 14 10 13 15 21 17 16 14 13 14
21 25 23 18 23 23 22 17 15 13 11 16 23 23 35 47 39 49 47 42 40 39 39 40 39 36 34 32 32 32 28 26 26 20 16 19 22 15 19 17 16 16 16
24 25 23 16 20 21 19 12 10 7 4 12 27 21 34 44 39 53 50 46 42 39 39 37 36 36 33 31 31 34 30 29 31 17 21 23 14 19 22 22 22 19 21

GFSSE_700_spd_108.txt.gz
Wind_Speed
7 7 6 10 14 13 14 13 12 11 10 14 17 18 19 20 19 17 12 11 12 11 10 10 11 11 12 12 13 12 11 10 8 8 10 11 13 12 9 8 8 9 9
4 7 10 16 15 15 13 11 11 12 11 13 15 19 19 21 20 20 16 14 14 14 12 11 11 12 13 13 14 13 13 13 9 12 11 12 12 10 9 10 10 10 10
9 10 16 18 17 17 15 13 9 13 13 16 17 19 21 21 21 21 19 16 15 14 14 14 11 11 14 14 16 15 14 13 10 13 14 12 11 10 10 10 8 9 8
13 13 13 19 22 19 13 12 10 11 14 16 17 19 19 20 26 20 19 18 17 15 14 15 14 14 16 16 16 16 14 12 11 12 11 12 12 12 10 10 11 8 5
11 14 16 19 22 19 15 11 10 10 16 18 23 24 22 21 22 17 19 20 18 15 15 15 16 16 18 18 15 13 11 12 13 12 10 11 11 10 7 6 6 5 5
12 12 16 18 21 19 14 13 12 12 15 20 23 29 19 21 22 23 21 18 17 15 16 16 16 19 19 16 14 13 13 14 14 11 11 13 13 8 5 6 6 5 5
11 14 16 17 18 18 14 13 14 15 16 22 27 22 21 25 25 22 21 19 18 17 16 17 18 18 17 16 14 14 13 13 12 11 11 11 10 7 6 6 6 6 5
14 15 17 18 18 19 16 13 15 18 20 23 27 29 28 33 25 33 24 25 20 18 16 18 18 17 16 16 16 15 14 12 11 11 10 10 9 9 8 7 7 6 7
14 16 18 19 18 21 19 15 15 18 21 24 26 32 29 36 33 31 20 26 25 18 18 20 19 18 16 16 15 14 13 12 12 9 9 9 9 10 9 8 7 8 7
16 15 17 19 20 23 20 17 16 18 23 26 26 27 27 29 27 28 24 28 25 22 21 21 19 18 18 16 16 15 13 12 12 10 11 10 11 10 9 8 9 8 7
16 17 18 19 22 22 21 18 17 18 22 26 27 30 16 30 27 30 29 34 13 21 22 22 21 21 20 19 18 16 14 13 11 11 12 11 10 9 10 10 9 8 8
20 18 20 20 21 21 20 20 19 19 23 27 27 30 28 18 28 23 25 21 26 21 30 24 24 23 22 21 19 18 15 14 12 11 12 11 11 10 10 10 10 10 8
19 20 21 23 20 22 22 23 22 23 24 26 29 30 30 27 20 27 28 24 25 25 38 31 28 26 24 21 20 18 17 15 14 10 12 13 11 12 12 11 10 9 9
22 21 24 25 20 22 25 27 27 27 27 28 28 29 27 29 21 23 27 24 17 35 39 31 28 26 25 24 20 18 18 15 14 14 16 11 14 13 12 11 11 10 8
17 20 23 20 19 23 26 30 32 30 27 29 28 28 27 28 27 24 30 21 17 28 35 31 29 25 26 27 23 21 18 17 13 16 12 13 13 12 11 11 11 9 8
22 19 19 19 21 24 28 32 32 29 25 26 27 27 29 30 30 30 30 20 20 22 29 31 29 27 28 26 24 22 20 16 16 14 13 13 12 12 10 11 10 10 8
24 21 21 23 24 26 29 31 29 21 20 21 24 26 28 31 32 31 29 25 22 29 34 33 32 30 30 29 25 24 20 16 16 14 13 14 14 12 12 12 11 10 9
22 17 20 24 26 25 29 28 24 19 15 17 20 22 24 30 34 36 33 32 28 26 35 35 34 32 31 29 26 23 19 16 14 14 15 16 15 14 12 11 11 11 9
20 21 22 24 25 25 28 25 21 16 13 15 17 19 27 32 39 40 40 38 35 32 29 40 36 32 31 32 27 22 19 17 16 17 17 16 15 13 13 12 11 11 12
20 22 23 23 24 25 27 24 20 16 17 16 17 17 18 30 36 46 41 48 33 36 36 41 38 34 32 31 27 24 22 21 20 19 18 15 13 11 10 10 11 13 13
20 22 21 22 24 25 27 23 22 18 19 18 19 17 17 22 29 35 52 39 47 46 45 38 39 37 35 33 29 27 25 23 21 19 17 15 13 12 11 10 13 14 13
19 21 23 23 24 25 28 23 24 20 21 21 20 16 16 15 21 35 42 42 41 41 51 45 43 42 38 34 32 28 28 26 23 20 19 17 14 10 10 13 15 14 13
21 24 25 27 24 25 27 23 23 20 21 21 23 21 19 21 19 34 35 34 45 49 49 44 43 40 38 36 33 31 29 27 24 23 20 17 13 8 15 13 12 13 14
22 23 24 26 24 24 26 22 24 19 20 21 24 23 22 21 20 36 36 43 47 47 45 45 44 41 37 33 32 31 28 24 24 22 20 15 14 10 14 18 14 16 17
26 26 25 21 22 23 24 22 23 16 18 20 24 24 19 23 27 42 42 43 42 41 43 43 42 39 36 33 31 30 28 26 25 23 16 14 13 18 24 22 17 17 16
17 21 22 21 21 22 19 21 19 14 15 17 19 20 18 18 31 51 47 44 42 39 39 38 39 36 34 31 31 30 27 29 26 24 21 25 24 21 23 23 20 19 18

GFSSE_700_spd_114.txt.gz
Wind_Speed
8 13 11 11 11 14 16 16 15 14 13 14 11 10 10 10 10 11 8 4 5 6 6 8 8 8 9 11 11 12 11 10 10 10 10 10 11 13 12 10 9 9 9
4 8 9 11 12 12 11 10 9 9 10 12 12 11 12 12 12 13 10 8 6 7 6 7 8 8 9 10 11 12 12 10 9 11 10 11 12 12 10 9 9 9 8
3 4 5 6 5 7 5 4 4 6 9 10 11 11 12 14 15 15 13 11 8 8 8 8 8 9 10 11 12 12 11 9 10 10 11 12 12 10 7 8 9 9 8
2 2 2 5 11 12 9 6 3 3 7 11 12 12 14 15 19 20 16 12 9 10 9 9 9 9 10 13 12 13 11 10 9 10 11 11 10 8 8 8 9 7 6
2 1 4 8 12 13 12 8 4 1 3 8 11 13 17 23 22 24 26 9 11 11 11 10 9 9 9 11 13 12 12 10 9 12 13 11 9 9 9 8 9 6 6
2 3 6 9 11 13 15 13 7 4 4 8 10 12 16 21 25 15 14 14 16 13 13 11 10 10 11 13 14 14 11 10 13 13 12 10 10 11 10 9 7 6 5
3 5 7 8 10 12 14 15 10 4 5 8 12 15 19 24 12 23 14 18 15 15 13 12 12 12 12 15 15 13 13 12 12 14 12 12 12 11 8 7 5 7 7
6 7 7 8 9 12 13 14 12 6 6 9 13 15 17 15 18 20 13 20 16 17 14 12 14 12 13 15 16 14 14 14 16 12 12 13 14 10 8 5 7 7 6
11 11 11 10 10 11 12 13 11 7 5 10 14 16 16 18 19 16 10 20 16 13 15 20 22 16 16 19 17 15 16 18 16 13 15 16 16 12 9 7 8 7 7
13 13 15 14 12 12 13 13 10 9 6 7 13 18 19 19 19 17 21 20 23 21 22 20 26 26 18 18 18 18 19 19 15 15 18 18 14 10 10 10 7 8 7
13 15 15 13 13 14 13 14 12 9 9 7 12 17 20 23 24 20 19 19 23 29 26 24 21 25 19 18 19 19 19 18 17 16 16 14 13 12 12 9 9 9 8
13 13 13 13 12 14 14 15 15 12 12 11 11 17 23 27 27 22 16 18 27 20 27 20 24 21 21 22 21 21 19 19 21 18 16 15 14 13 11 9 10 10 10
15 13 16 16 15 15 15 15 15 15 15 15 15 17 23 26 28 25 24 20 23 28 20 26 24 22 22 21 24 23 23 20 19 19 15 15 14 12 10 10 11 10 10
19 16 15 17 16 13 14 15 14 17 19 22 17 19 23 27 29 29 27 25 20 26 25 25 30 24 22 22 24 23 21 21 18 16 16 15 13 12 12 11 11 11 10
23 20 19 18 17 13 13 14 15 19 23 26 20 18 23 28 30 31 28 30 23 26 28 21 28 25 22 25 26 25 23 21 18 16 14 15 16 15 14 14 14 12 12
28 25 23 22 20 18 17 17 18 19 23 26 22 19 22 27 30 30 30 29 24 28 29 20 30 29 25 27 28 26 24 21 18 17 17 18 16 16 15 13 13 13 13
33 31 29 26 25 21 21 22 21 19 22 25 21 17 19 25 30 31 30 29 26 21 25 21 31 29 28 29 29 27 25 21 19 20 20 19 19 17 16 17 16 15 14
34 32 29 30 28 22 22 22 22 19 21 22 20 15 17 22 29 31 33 31 30 27 26 28 31 31 27 30 31 29 26 23 21 21 21 20 20 16 18 17 18 16 16
27 27 26 30 29 25 25 23 24 20 20 20 20 15 15 20 25 29 35 34 31 29 29 24 24 34 30 31 32 30 28 24 22 22 23 21 19 19 18 18 17 16 14
26 25 24 26 28 27 27 25 25 22 20 20 19 17 16 19 24 28 34 41 35 34 33 31 30 38 32 30 34 33 29 25 22 24 22 22 22 20 20 18 16 15 13
28 27 28 27 30 29 28 25 23 23 22 21 20 18 19 22 23 23 25 37 40 40 37 33 29 36 33 35 36 34 30 28 25 24 24 23 21 20 19 18 16 14 12
30 29 30 26 30 29 27 25 24 24 22 22 22 21 21 23 27 25 28 34 37 44 42 38 36 35 36 37 38 35 34 30 28 24 24 24 20 21 20 18 15 12 12
30 30 31 31 30 28 25 26 25 23 23 23 22 21 20 24 27 29 28 37 36 47 47 41 43 38 37 38 39 37 35 32 28 25 24 23 22 21 20 18 16 12 14
34 33 33 32 30 30 27 26 25 23 22 23 24 20 21 24 24 30 34 31 27 46 51 40 42 44 41 38 38 36 36 34 29 27 25 24 24 22 20 17 16 15 17
36 33 32 30 30 29 28 26 24 24 23 24 24 18 19 25 27 28 32 34 34 46 45 44 49 48 42 40 40 39 36 32 28 25 23 22 23 21 22 20 19 17 18
33 32 33 31 30 30 31 29 25 22 22 24 21 17 19 23 25 30 33 33 35 41 49 47 50 45 44 43 36 33 32 31 30 27 22 22 21 23 23 22 23 20 20

GFSSE_700_spd_117.txt.gz
Wind_Speed
8 8 11 11 13 14 15 19 21 20 20 17 15 13 12 12 11 10 8 7 8 9 9 9 9 9 9 9 8 9 9 9 9 9 9 9 9 10 11 11 8 7 7
9 5 10 12 14 15 13 12 14 15 16 16 14 14 13 13 12 12 11 9 8 9 8 10 9 9 9 9 9 9 8 8 8 8 9 9 10 11 8 6 5 6 7
4 8 11 9 8 6 4 5 7 9 13 14 13 12 13 15 16 16 15 12 11 11 9 9 9 9 8 8 9 9 9 8 7 8 9 10 11 10 7 6 7 6 6
3 5 4 1 4 7 6 4 4 4 6 11 13 12 14 15 19 22 21 18 13 11 8 8 9 9 9 9 9 9 8 7 8 10 10 11 10 7 5 6 7 7 5
3 1 1 4 7 10 11 8 4 3 3 7 11 13 14 15 23 24 26 17 15 9 7 6 7 9 9 9 10 9 8 9 10 9 11 10 9 6 7 8 8 7 5
2 2 2 4 6 9 11 11 7 4 4 5 8 11 12 17 25 28 19 18 18 12 9 9 8 8 8 10 11 11 11 11 11 12 11 9 8 9 9 8 6 4 5
3 3 4 4 5 7 10 10 9 5 4 5 8 11 15 15 18 20 5 8 9 12 6 9 9 9 9 10 12 13 12 11 12 13 11 8 9 10 10 6 5 5 5
6 6 5 6 6 7 8 10 9 6 4 5 6 12 13 13 12 11 7 15 7 10 8 6 8 8 10 12 13 13 12 12 10 13 11 10 11 11 8 6 7 7 5
8 8 9 10 9 8 9 9 9 8 5 4 7 11 13 13 12 11 9 11 12 8 7 11 10 11 8 14 16 15 14 13 18 13 11 12 14 12 8 7 8 8 6
11 10 10 12 12 11 10 9 10 9 9 6 7 10 12 14 16 15 13 13 13 12 14 14 17 15 13 15 17 15 15 15 16 14 14 15 16 13 12 9 9 8 7
15 13 11 12 11 11 11 10 11 10 10 10 9 10 14 19 19 18 17 9 11 19 20 19 18 19 17 16 19 16 17 18 17 17 18 17 15 14 13 11 9 9 8
17 16 13 12 12 12 11 11 11 12 11 10 12 14 15 19 21 22 21 17 18 19 25 20 20 20 22 20 21 19 19 19 18 18 18 18 18 15 14 12 10 9 9
20 20 16 14 14 13 12 12 11 10 12 12 13 16 19 21 22 24 25 22 21 19 23 17 19 21 21 22 22 20 21 21 19 23 19 19 18 17 15 13 12 11 10
24 23 20 17 16 14 12 12 12 10 13 15 17 19 19 20 24 26 28 26 25 22 21 22 17 21 22 24 21 22 23 22 22 25 18 19 18 18 17 14 12 12 10
23 28 22 20 20 16 14 12 12 12 14 17 19 20 19 21 22 25 28 27 24 24 18 22 23 24 24 23 21 24 24 24 26 26 20 19 18 17 15 15 13 12 12
30 32 29 25 24 23 19 16 16 18 16 17 19 20 19 20 25 27 28 28 28 24 23 21 29 31 27 24 24 26 26 28 24 23 20 19 19 17 16 14 13 13 13
28 35 34 32 29 28 23 20 20 23 20 18 19 20 18 17 23 27 29 30 29 26 26 23 24 27 29 24 25 26 26 27 24 21 18 19 18 16 15 15 15 15 14
28 28 35 36 35 32 28 24 23 24 22 20 18 19 18 16 20 27 31 31 31 28 27 23 30 23 28 28 27 26 26 27 25 23 21 19 18 17 15 16 15 14 14
28 28 32 33 34 31 31 27 25 24 24 22 20 19 18 18 17 23 29 32 33 28 27 21 27 29 34 33 32 27 29 28 25 23 23 20 19 18 17 18 16 15 15
27 35 35 34 30 29 31 29 28 28 24 23 22 21 21 19 18 21 27 30 33 31 30 32 30 29 32 31 32 30 28 30 25 24 22 21 20 20 22 20 17 16 15
30 37 34 33 29 29 31 30 28 27 24 24 24 22 23 22 21 22 25 30 34 35 36 35 31 31 30 31 33 30 31 28 27 25 24 24 23 23 22 20 17 17 16
34 35 35 32 31 30 30 29 31 29 26 26 26 24 23 25 24 24 27 29 33 34 38 39 39 35 32 38 36 35 35 32 30 26 26 25 23 22 20 18 17 18 16
35 36 35 33 32 32 29 32 33 31 29 27 24 25 26 27 25 26 29 29 32 30 37 38 37 40 36 37 35 37 37 33 31 28 27 25 25 22 21 19 18 18 16
33 36 38 34 33 32 30 31 31 30 27 25 26 26 26 28 26 27 28 31 32 31 44 37 40 38 40 39 35 37 33 29 33 31 29 28 25 23 23 20 20 20 16
26 36 35 35 35 33 33 32 31 30 27 27 26 27 26 28 26 26 28 28 34 30 35 33 40 44 41 40 40 38 36 29 27 29 29 25 25 24 24 22 23 22 19
30 32 30 34 36 33 34 33 32 30 28 26 25 27 26 27 26 26 25 28 33 34 34 37 46 49 48 45 42 38 39 37 31 27 26 25 24 24 24 24 26 22 19

GFSSE_700_spd_123.txt.gz
Wind_Speed
6 8 14 19 10 8 10 11 13 14 16 18 18 15 12 11 15 15 10 7 7 9 10 10 10 11 12 12 10 9 11 10 7 5 7 9 10 9 8 8 7 7 7
8 12 17 22 10 6 7 8 8 10 11 12 12 11 10 12 15 15 12 7 7 9 11 11 11 11 10 11 11 10 9 9 8 7 8 9 10 10 10 8 7 7 8
10 14 19 17 5 2 1 2 4 4 6 7 7 7 10 13 16 16 15 14 12 11 11 11 11 11 10 10 10 10 10 10 9 8 8 8 9 10 9 8 8 8 7
13 16 17 8 3 3 2 1 2 2 3 3 4 7 12 14 14 14 16 19 21 17 14 12 11 10 11 11 12 11 10 10 9 8 8 8 9 10 8 7 8 8 8
12 14 12 4 3 4 4 3 3 1 2 1 4 6 6 7 8 11 14 20 25 19 19 14 11 11 11 12 12 12 11 10 9 8 9 10 10 8 7 7 8 7 6
12 15 8 1 4 5 6 6 6 5 3 2 1 0 3 4 8 9 13 16 12 22 23 18 13 12 12 12 11 11 11 10 11 11 10 11 9 7 7 8 8 8 6
13 14 7 1 3 5 6 6 6 7 7 5 4 3 3 6 5 5 1 6 11 28 21 17 15 11 10 10 13 12 11 12 12 12 13 12 10 9 9 10 9 7 6
14 12 9 2 1 3 5 5 6 7 6 6 5 2 5 6 5 3 1 3 4 9 19 22 20 13 10 11 11 12 12 12 11 11 13 11 10 11 11 10 6 5 6
15 12 11 6 4 6 6 5 5 7 7 5 4 3 3 5 5 5 4 2 4 16 22 21 17 16 13 12 12 13 15 13 10 11 14 12 11 13 12 8 5 5 6
21 14 12 9 7 8 8 7 5 6 6 6 4 5 5 5 6 5 7 4 6 16 19 19 18 13 13 14 14 15 15 14 13 11 13 13 13 13 12 8 5 6 7
21 17 14 12 11 10 10 8 7 6 6 5 5 6 7 5 6 7 9 6 6 16 15 14 14 11 15 16 15 16 16 15 14 13 13 14 15 15 13 9 8 8 9
23 19 16 14 13 12 12 10 8 8 6 4 5 7 9 7 5 10 10 11 9 13 16 14 14 10 9 14 16 19 17 15 15 15 15 14 14 13 11 10 9 9 10
23 24 23 17 15 14 12 12 10 9 7 4 5 7 10 10 7 8 12 12 14 13 15 11 11 16 14 14 20 19 18 18 17 18 16 16 15 13 12 11 10 11 13
29 30 25 21 19 16 15 13 13 10 9 5 4 8 11 13 12 10 11 15 15 17 13 13 13 11 12 16 24 24 23 20 20 19 19 18 17 16 14 12 12 13 14
25 23 25 23 22 19 17 15 15 12 11 9 6 7 11 13 14 14 10 15 16 18 18 15 15 14 13 19 26 27 22 21 19 21 21 20 16 15 15 13 13 14 16
24 25 26 27 22 21 19 18 17 17 14 12 10 8 10 13 14 15 12 12 14 17 19 17 15 14 12 16 22 22 22 23 22 24 22 18 19 16 15 15 15 15 17
31 28 31 34 31 25 24 22 22 19 19 18 13 12 11 12 14 16 14 10 12 18 19 19 15 16 14 20 20 23 26 25 26 26 18 15 15 16 16 15 16 17 17
41 41 37 38 36 29 25 27 27 24 21 22 17 15 13 12 13 16 16 12 12 18 20 19 18 16 15 19 23 24 29 27 27 24 20 14 14 16 17 16 18 18 17
41 38 37 33 33 32 28 27 27 28 25 22 23 19 17 14 13 16 17 15 14 16 18 21 22 20 17 14 23 25 29 27 28 24 20 17 16 17 17 18 19 17 16
32 33 36 38 38 36 31 35 29 30 29 27 25 25 22 17 15 15 18 17 15 16 21 24 25 24 21 20 24 29 28 30 29 25 21 19 19 18 19 20 19 17 17
33 34 38 40 40 40 40 40 31 28 26 26 26 27 26 22 19 17 18 19 16 18 19 23 24 25 24 23 23 34 29 28 28 26 23 22 22 22 22 22 21 20 18
38 41 39 44 44 42 42 42 36 28 26 26 27 30 28 25 23 20 20 20 19 16 21 25 27 29 28 26 26 27 35 36 31 32 25 25 25 24 24 23 22 21 19
32 37 41 40 39 40 41 43 41 33 29 27 30 31 30 28 26 22 23 22 22 19 20 24 26 29 31 30 31 30 39 41 37 34 30 26 25 25 26 25 23 22 21
34 37 39 40 41 40 42 46 41 33 30 26 28 31 32 29 27 27 25 24 24 21 19 24 27 28 33 34 36 40 36 41 42 36 30 30 29 26 26 25 24 24 23
38 37 38 39 41 44 45 47 44 35 30 29 30 34 34 30 30 30 27 26 25 22 20 23 28 30 33 32 38 38 35 46 38 30 26 29 30 27 25 24 23 23 24
31 35 41 43 43 45 46 44 42 34 32 30 30 32 33 32 32 31 28 27 26 22 21 22 27 31 34 30 38 41 42 44 43 38 34 24 25 24 23 23 24 26 25